www.pogodaiklimat.ru

Погода и климат >> Архив погоды >> Бангладеш >> Тангайл


ПОГОДА в Тангайле

  • Прогноз погоды в Тангайле
  • Монитор погоды в Тангайле

АРХИВ ПОГОДЫ в Тангайле

Время (UTC), дата Ветер
(напр.,м/с)
 
Видим.   Явления Облачность Т
(С)
Тd
(С)
f
(%)
Тe
(С)
Тes
(С)
Комфортность P
(гПа)
Po
(гПа)
Тmin
(С)
Tmax
(С)
R
(мм)
R24
(мм)
S
(см)
06 12.06 ЮВ 1 6000 м 8/4 420 м
[Cb calv Ac trans]
+35.4 +26.0 58 +51 +60 опасность
перегрева
1000.4 999.3
18 12.06 штиль 0 4000 м ясно +29.3 +27.0 87 +46 +46 опасность
перегрева
1000.0 998.8
00 13.06 штиль 0 4000 м 8/4 450 м
[Sc Ac As]
+26.8 +27.0 100 +42 +42 опасность
перегрева
998.8 997.6
12 13.06 штиль 0 6000 м 9/5 420 м
[Sc Ac As]
+33.9 +27.0 67 +52 +52 опасность
перегрева
996.2 995.0 +36.8
18 13.06 штиль 0 4000 м ясно +28.0 +23 +23 комфорт 998.3 997.2
00 14.06 штиль 0 5000 м 3/3 450 м
[Sc]
+29.0 +28.0 94 +48 +48 опасность
перегрева
997.2 996.0
06 14.06 штиль 0 6000 м 6/3 450 м
[Sc As trans]
+35.4 +26.0 58 +51 +66 опасность
перегрева
998.6 997.5
09 14.06 ЮВ 1 6000 м 8/4 450 м
[Sc Ac As]
+33.5 +27.0 69 +52 +56 опасность
перегрева
996.7 995.5
12 14.06 ЮВ 2 6000 м 9/5 420 м
[Sc Ac As]
+31.0 +27.0 79 +48 +49 опасность
перегрева
996.6 995.5 +35.5
15 14.06 штиль 0 4500 м ясно +29.5 +26.0 81 +44 +44 опасность
перегрева
999.2 998.0
18 14.06 штиль 0 4000 м ясно +28.0 +25.0 84 +40 +40 очень
душно
999.8 998.6
00 15.06 штиль 0 3500 м мгла 10/6 270 м
[St As op]
+28.9 +28.0 95 +48 +48 опасность
перегрева
998.7 997.6
03 15.06 штиль 0 5000 м {гроза, дождь} 10/8 240 м
[St As op]
+25.7 +25.0 96 +37 +37 очень
душно
1000.1 998.9 +23.3
06 15.06 В 2 6000 м {гроза, дождь} 10/6 420 м
[Sc As op]
+27.6 +26.0 91 +41 +43 опасность
перегрева
999.7 998.5 30
09 15.06 В 1 6000 м 10/6 420 м
[Sc As op]
+28.7 +26.0 85 +43 +44 опасность
перегрева
997.8 996.7
12 15.06 Ю 1 5000 м 10/6 420 м
[Sc As op]
+26.9 +25.0 89 +39 +39 очень
душно
997.5 996.3 +29.0
18 15.06 штиль 0 4000 м 8/4 450 м
[Sc Ac As]
+25.2 +23.0 88 +34 +34 очень
душно
999.8 998.6
00 16.06 В 1 4000 м 10/6 450 м
[Sc As op]
+24.7 +24.0 96 +34 +34 очень
душно
999.2 998.0
03 16.06 В 1 6000 м 10/6 450 м
[Sc As op]
+29.6 +26.0 81 +44 +46 опасность
перегрева
998.9 997.8 +23.0
06 16.06 В 2 6000 м 8/4 450 м
[Sc Ac As]
+34.5 +28.0 69 +55 +62 опасность
перегрева
998.7 997.5
09 16.06 Ю 1 6000 м 8/4 450 м
[Sc Ac As]
+35.6 +29.0 69 +59 +64 опасность
перегрева
997.1 996.0
12 16.06 ЮВ 1 6000 м 6/3 450 м
[Sc As trans]
+34.2 +28.0 70 +55 +55 опасность
перегрева
996.3 995.2 +36.2
15 16.06 штиль 0 4500 м ясно +30.7 +27.0 81 +48 +48 опасность
перегрева
997.9 996.7
18 16.06 В 1 4000 м ясно +28.4 +25.0 82 +41 +41 опасность
перегрева
998.0 996.9
00 17.06 В 1 5000 м 10/8 240 м
[St As op]
+28.4 +26.0 87 +43 +43 опасность
перегрева
998.5 997.4
03 17.06 ЮВ 2 6000 м 9/5 420 м
[Sc Ac As]
+32.2 +25.0 66 +46 +49 опасность
перегрева
999.1 998.0 +27.5
06 17.06 ЮВ 1 6000 м 10/6 420 м
[Cb calv As op]
+34.0 +27.0 67 +52 +54 опасность
перегрева
999.0 997.8
09 17.06 ЮВ 1 6000 м 6/3 450 м
[Sc As trans]
+35.2 +28.0 66 998.1 557.0
12 17.06 ЮВ 1 5000 м 10/6 420 м
[Sc As op]
+33.8 +29.0 76 +57 +57 опасность
перегрева
996.5 995.4 +35.7
15 17.06 ЮВ 2 4000 м гроза, ливневой дождь 10/6 240 м
[Cb cap As op]
+24.7 +24.0 96 +34 +34 очень
душно
999.3 998.1
18 17.06 ЮВ 1 4000 м гроза, ливневой дождь 10/6 240 м
[Cb cap As op]
+24.5 +24.0 97 +34 +34 очень
душно
999.0 997.9 11
00 18.06 ЮВ 1 4000 м {гроза, дождь} 10/6 240 м
[Cb cap As op]
+24.0 +23.0 94 +32 +32 очень
душно
999.0 997.9 62
03 18.06 ЮВ 1 6000 м {гроза, дождь} 10/6 240 м
[Cb cap As op]
+29.0 +24.0 74 +40 +41 очень
душно
1000.4 999.3 +23.5
06 18.06 ЮВ 1 6000 м {гроза, дождь} 10/6 450 м
[Sc As op]
+32.6 +25.0 64 +46 +48 опасность
перегрева
1000.6 999.5 1
09 18.06 ЮВ 1 6000 м 8/4 450 м
[Sc Ac As]
+33.9 +26.0 63 +49 +54 опасность
перегрева
998.6 997.4
12 18.06 ЮВ 1 6000 м 3/3 450 м
[Cb calv]
+32.8 +27.0 72 +51 +52 опасность
перегрева
997.3 996.1 +34.4
15 18.06 штиль 0 4500 м ясно +30.0 +25.0 75 +43 +43 опасность
перегрева
999.3 998.1
18 18.06 штиль 0 4000 м ясно +28.6 +25.0 81 +41 +41 опасность
перегрева
1000.6 999.4
00 19.06 штиль 0 4000 м мгла 4/0
[Ac trans]
+27.5 +27.0 97 +43 +44 опасность
перегрева
999.3 998.2

 

Местоположение метеостанции Тангайл (Бангладеш): широта 24.25 долгота 89.93 высота над уровнем моря 20 м.

В архиве по умолчанию представлена погода в Тангайле за последнюю неделю. Архивные данные за месяц целиком и за предыдущие месяцы, начиная с января 2011 года, Вы можете получить, выбрав интересующий диапазон дат из раскрывающегося списка и нажав кнопку "Ввод!".


*Определитесь, кто Вы:
робот инопланетянин человек

Внимание! Время в таблицах - всемирное. Для получения местного времени необходимо прибавить поправку, которая равна 6.5 ч.

Смотрите также архив погоды в соседних городах и на ближайших метеорологических станциях:

Погода в Дакке (Бангладеш) (70 км)
Погода в Тараше (Бангладеш) (71 км)
Погода в Фаридпуре (Бангладеш) (73 км)
Погода в Маймансингхе (Бангладеш) (73 км)
Погода в Богре (Бангладеш) (88 км)
Погода в Ишварди (Бангладеш) (90 км)
Погода в Никли (Бангладеш) (102 км)
Погода в Нетрокона-Садаре (Бангладеш) (108 км)
Погода в Кумархали (Бангладеш) (114 км)
Погода в Мадарипуре (Бангладеш) (123 км)

Пояснения к столбцам:

Ветер - указаны скорость ветра в м/с - средняя за 10 мин, порывы в срок и между сроками (в фигурных скобках) и направление, откуда дует ветер: С - северный, СВ - северо-восточный, В - восточный, ЮВ - юго-восточный, Ю - южный, ЮЗ - юго-западный, З - западный, СЗ - северо-западный.
Видимость - горизонтальная дальность видимости в метрах или километрах. При видимости от 1 до 10 км при отсутствии осадков обычно наблюдается дымка, при ухудшении видимости до 1 км и менее - туман. В сухую погоду видимость может ухудшаться дымом, пылью или мглою.
Явления - указаны атмосферные явления, наблюдавшиеся в срок или в последний час перед сроком; фигурными скобками обозначены явления, наблюдавшиеся между сроками (за 1-3 часа до срока); квадратными скобками обозначены град или гололедные отложения с указанием их диаметра в мм.
Облачность - указаны через наклонную черту общая и нижняя облачность в баллах и высота нижней границы облаков в метрах; квадратными скобками обозначены формы облаков: Ci - перистые, Cs - перисто-слоистые, Cc - перисто-кучевые, Ac - высококучевые, As - высокослоистые, Sc - слоисто-кучевые, Ns - слоисто-дождевые, Cu - кучевые, Cb - кучево-дождевые. Подробнее классификацию облаков см. в Атласе облаков (PDF).
T - Температура воздуха - температура, измеренная на высоте 2 м над землей.
Td - Температура точки росы - температура, при понижении до которой содержащийся в воздухе водяной пар достигнет насыщения.
f - Относительная влажность воздуха - влажноcть воздуха, измеренная на высоте 2 м над землей.
Te - Эффективная температура - температура, которую ощущает одетый по сезону человек в тени. Характеристика душности погоды. При расчете учитывается влияние влажности воздуха и скорости ветра на теплоощущения человека.
Tes - Эффективная температура на солнце - температура, которую ощущает человек, с поправкой на солнечный нагрев. Характеристика знойности погоды. Зависит от высоты солнца над горизонтом, облачности и скорости ветра. Ночью, в пасмурную погоду, а также при ветре 12 м/с и более поправка равна нулю.
P - Атмосферное давление - приведенное к уровню моря атмосферное давление.
Po - Атмосферное давление - измеренное на уровне метеостанции атмосферное давление.
Tmin - Минимальная температура - минимум температуры воздуха на высоте 2 м над землей.
Tmax - Максимальная температура - максимум температуры воздуха на высоте 2 м над землей.
R - Количество осадков - Количество выпавших осадков за период времени, мм. При наведении курсора мыши на число - период времени, за который выпало указанное количество осадков.
R24 - Количество осадков - Количество выпавших осадков за 24 часа, мм.
S - Снежный покров - Высота снежного покрова, см. При наведении курсора мыши на число - состояние снежного покрова и степень покрытия местности в баллах.